sat.trackr.live / text

‹ back to catalog

STARLINK-5400

NORAD 54861 · 2022-177AT

PAYLOAD ACTIVE UNKNOWN

§ Identity

Operator
Country
US
Launch date
2022-12-28
Launch site
AFETR
Launch vehicle
Mass (kg)
RCS (m²)

Purposes: comms

External: N2YO · Heavens-Above · Gunter

§ Orbital elements

Epoch: 2026-05-25T02:55:53.832576Z

Period
94.27 min
Inclination
43.0055°
Eccentricity
0.0001184
Mean motion
15.27575631 rev/d
Perigee alt
482.2 km
Apogee alt
483.9 km
Semi-major
6,861.2 km
B*
3.2087e-5
RAAN
49.6212°
Arg perigee
266.3114°
Mean anomaly
93.7602°
Rev number
18,878

§ Raw data

STARLINK-54001 54861U 22177AT  26145.12215084  .00000621  00000+0  32087-4 0  99962 54861  43.0055  49.6212 0001184 266.3114  93.7602 15.27575631188785

JSON: /api/v1/satellites/54861 · /tle

For live sub-satellite position, see the globe view (requires WebGL).

§ Visibility from observer

Set your observer location to see the next 7 days of passes ≥ 10°. The values pass through the URL so the page stays shareable.

No JS? Fill the form by hand. The geolocation button needs JavaScript.